Weather History for KCQW - September, 2012

Change the Weather History Date:

Friday, September 21, 2012

  Actual Average (KFLO) Record (KFLO)
Temperature  
Mean Temperature 68 °F 73 °F  
Max Temperature 82 °F 83 °F 97 °F (1954)
Min Temperature 53 °F 63 °F 45 °F (1962)
Degree Days  
Heating Degree Days 0 0  
Month to date heating degree days 0  
Since 1 July heating degree days 0  
Cooling Degree Days 2 8  
Month to date cooling degree days 226  
Year to date cooling degree days 1896  
Growing Degree Days 18 (Base 50)    
Moisture  
Dew Point 60 °F    
Average Humidity 80    
Maximum Humidity 100    
Minimum Humidity 42    
Precipitation  
Precipitation 0.00 in 0.11 in 2.03 in (1989)
Month to date precipitation 2.64  
Year to date precipitation 33.12  
Sea Level Pressure  
Sea Level Pressure 30.06 in    
Wind  
Wind Speed 3 mph (SSW)    
Max Wind Speed 15 mph    
Max Gust Speed 21 mph    
Visibility 8 miles    
Events Fog    
T = Trace of Precipitation, MM = Missing Value Source: NWS Daily Summary

Daily Weather History Graph

Daily Weather History Graph

Search for Another Location

Airport or City:

Trip Planner

Search our weather history database for the weather conditions in past years. The results will help you decide how hot, cold, wet, or windy it might be!

Date:

Astronomy

Sep. 21, 2012 Rise Set
Actual Time 7:07 AM EDT 7:17 PM EDT
Civil Twilight 6:42 AM EDT 7:42 PM EDT
Nautical Twilight 6:12 AM EDT 8:11 PM EDT
Astronomical Twilight 5:43 AM EDT 8:41 PM EDT
Moon 1:12 PM EDT (9/21) 11:31 PM EDT (9/21)
Length of Visible Light 13h 00m
Length of Day
12h 09m
Waxing Crescent, 37% of the Moon is Illuminated
Sep 21
Waxing Crescent
Sep 22
First Quarter
Sep 29
Full
Oct 8
Last Quarter
Oct 15
New

Hourly Weather History & Observations

Time (EDT) Temp. Heat Index Dew Point Humidity Pressure Visibility Wind Dir Wind Speed Gust Speed Precip Events Conditions
12:15 AM 60.8 °F - 60.8 °F 100% 30.11 in 5.0 mi Calm Calm - N/A   Clear
12:35 AM 60.8 °F - 60.8 °F 100% 30.11 in 1.0 mi North - - N/A   Clear
12:55 AM 60.8 °F - 60.8 °F 100% 30.10 in 0.2 mi Calm Calm - N/A Fog Fog
1:15 AM 60.8 °F - 60.8 °F 100% 30.10 in 0.2 mi Calm Calm - N/A Fog Fog
1:35 AM 59.0 °F - 59.0 °F 100% 30.10 in 0.5 mi Calm Calm - N/A Fog Fog
1:55 AM 60.8 °F - 60.8 °F 100% 30.10 in 1.5 mi Calm Calm - N/A   Clear
2:15 AM 59.0 °F - 59.0 °F 100% 30.10 in 0.8 mi Calm Calm - N/A   Mostly Cloudy
2:35 AM 59.0 °F - 59.0 °F 100% 30.10 in 2.0 mi Calm Calm - N/A   Scattered Clouds
2:55 AM 57.2 °F - 57.2 °F 100% 30.09 in 0.5 mi Calm Calm - N/A Fog Fog
3:15 AM 57.2 °F - 57.2 °F 100% 30.09 in 0.5 mi Calm Calm - N/A Fog Fog
3:35 AM 57.2 °F - 57.2 °F 100% 30.09 in 2.5 mi Calm Calm - N/A   Clear
3:55 AM 57.2 °F - 57.2 °F 100% 30.08 in 0.8 mi Calm Calm - N/A   Mist
4:15 AM 57.2 °F - 57.2 °F 100% 30.08 in 2.5 mi Calm Calm - N/A   Clear
4:35 AM 55.4 °F - 55.4 °F 100% 30.08 in 0.8 mi Calm Calm - N/A   Mist
4:55 AM 55.4 °F - 55.4 °F 100% 30.08 in 8.0 mi Calm Calm - N/A   Clear
5:15 AM 55.4 °F - 55.4 °F 100% 30.08 in 1.8 mi Calm Calm - N/A   Clear
5:35 AM 55.4 °F - 55.4 °F 100% 30.08 in 7.0 mi Calm Calm - N/A   Clear
5:55 AM 55.4 °F - 55.4 °F 100% 30.08 in 3.0 mi WNW 3.5 mph - N/A   Clear
6:15 AM 55.4 °F - 55.4 °F 100% 30.08 in 3.0 mi Calm Calm - N/A   Clear
6:35 AM 53.6 °F - 53.6 °F 100% 30.09 in 6.0 mi Calm Calm - N/A   Clear
6:55 AM 53.6 °F - 53.6 °F 100% 30.09 in 4.0 mi Calm Calm - N/A   Clear
7:15 AM 53.6 °F - 53.6 °F 100% 30.10 in 8.0 mi Calm Calm - N/A   Clear
7:35 AM 53.6 °F - 53.6 °F 100% 30.10 in 5.0 mi WSW 3.5 mph - N/A   Clear
7:55 AM 55.4 °F - 55.4 °F 100% 30.11 in 5.0 mi Calm Calm - N/A   Clear
8:15 AM 57.2 °F - 57.2 °F 100% 30.11 in 5.0 mi Calm Calm - N/A   Clear
8:35 AM 59.0 °F - 59.0 °F 100% 30.10 in 5.0 mi Calm Calm - N/A   Partly Cloudy
8:55 AM 60.8 °F - 60.8 °F 100% 30.10 in 9.0 mi Calm Calm - N/A   Clear
9:15 AM 62.6 °F - 62.6 °F 100% 30.10 in 10.0 mi WSW 3.5 mph - N/A   Clear
9:35 AM 64.4 °F - 64.4 °F 100% 30.10 in 10.0 mi SW 5.8 mph - N/A   Clear
9:55 AM 66.2 °F - 62.6 °F 88% 30.11 in 10.0 mi SW 4.6 mph - N/A   Clear
10:15 AM 69.8 °F - 62.6 °F 78% 30.10 in 10.0 mi SW 6.9 mph - N/A   Clear
10:35 AM 71.6 °F - 62.6 °F 73% 30.10 in 10.0 mi WSW 5.8 mph - N/A   Clear
10:55 AM 73.4 °F - 62.6 °F 69% 30.11 in 10.0 mi SW 9.2 mph - N/A   Clear
11:15 AM 73.4 °F - 62.6 °F 69% 30.10 in 10.0 mi SW 9.2 mph - N/A   Clear
11:35 AM 75.2 °F - 62.6 °F 65% 30.09 in 10.0 mi West 5.8 mph - N/A   Clear
11:55 AM 75.2 °F - 60.8 °F 61% 30.09 in 10.0 mi NNE 4.6 mph - N/A   Clear
12:15 PM 75.2 °F - 60.8 °F 61% 30.08 in 10.0 mi SW 10.4 mph 17.3 mph N/A   Clear
12:35 PM 78.8 °F - 60.8 °F 54% 30.08 in 10.0 mi SSW 4.6 mph - N/A   Clear
12:55 PM 78.8 °F - 60.8 °F 54% 30.07 in 10.0 mi South 5.8 mph - N/A   Clear
1:15 PM 78.8 °F - 60.8 °F 54% 30.07 in 10.0 mi WNW 8.1 mph - N/A   Partly Cloudy
1:35 PM 78.8 °F - 60.8 °F 54% 30.06 in 10.0 mi NNE 4.6 mph - N/A   Scattered Clouds
1:55 PM 78.8 °F - 60.8 °F 54% 30.06 in 10.0 mi SW 11.5 mph 16.1 mph N/A   Partly Cloudy
2:15 PM 78.8 °F - 60.8 °F 54% 30.05 in 10.0 mi Calm Calm - N/A   Scattered Clouds
2:35 PM 80.6 °F 81.5 °F 60.8 °F 51% 30.04 in 10.0 mi South 11.5 mph 16.1 mph N/A   Clear
2:55 PM 80.6 °F 81.5 °F 60.8 °F 51% 30.04 in 10.0 mi SW 4.6 mph 18.4 mph N/A   Scattered Clouds
3:15 PM 82.4 °F 82.0 °F 57.2 °F 42% 30.03 in 10.0 mi SSW 12.7 mph 17.3 mph N/A   Scattered Clouds
3:35 PM 80.6 °F 80.8 °F 57.2 °F 45% 30.02 in 10.0 mi South 6.9 mph - N/A   Clear
3:55 PM 82.4 °F 82.5 °F 59.0 °F 45% 30.02 in 10.0 mi WSW 6.9 mph 18.4 mph N/A   Clear
4:15 PM 80.6 °F 81.1 °F 59.0 °F 48% 30.02 in 10.0 mi South 8.1 mph - N/A   Clear
4:35 PM 80.6 °F 80.8 °F 57.2 °F 45% 30.02 in 10.0 mi South 3.5 mph - N/A   Partly Cloudy
4:55 PM 82.4 °F 82.5 °F 59.0 °F 45% 30.01 in 10.0 mi SSE 4.6 mph - N/A   Clear
5:15 PM 80.6 °F 81.5 °F 60.8 °F 51% 30.01 in 10.0 mi SE 10.4 mph - N/A   Clear
5:35 PM 80.6 °F 81.5 °F 60.8 °F 51% 30.01 in 10.0 mi SE 15.0 mph 20.7 mph N/A   Clear
5:55 PM 80.6 °F 81.8 °F 62.6 °F 54% 30.01 in 10.0 mi SE 15.0 mph 19.6 mph N/A   Clear
6:15 PM 78.8 °F - 62.6 °F 57% 30.02 in 10.0 mi SE 12.7 mph 20.7 mph N/A   Clear
6:35 PM 77.0 °F - 62.6 °F 61% 30.01 in 10.0 mi SE 9.2 mph 18.4 mph N/A   Clear
6:55 PM 75.2 °F - 64.4 °F 69% 30.00 in 10.0 mi SE 9.2 mph - N/A   Clear
7:15 PM 73.4 °F - 62.6 °F 69% 30.00 in 10.0 mi SSE 8.1 mph - N/A   Clear
7:35 PM 73.4 °F - 62.6 °F 69% 30.00 in 10.0 mi SSE 8.1 mph - N/A   Clear
7:55 PM 71.6 °F - 62.6 °F 73% 30.00 in 10.0 mi SE 8.1 mph - N/A   Clear
8:15 PM 71.6 °F - 62.6 °F 73% 30.00 in 10.0 mi SSE 5.8 mph - N/A   Clear
8:35 PM 69.8 °F - 64.4 °F 83% 30.01 in 10.0 mi South 5.8 mph - N/A   Clear
8:55 PM 69.8 °F - 64.4 °F 83% 30.01 in 10.0 mi South 5.8 mph - N/A   Clear
9:15 PM 69.8 °F - 64.4 °F 83% 30.02 in 10.0 mi South 3.5 mph - N/A   Clear
9:35 PM 69.8 °F - 64.4 °F 83% 30.02 in 10.0 mi South 5.8 mph - N/A   Clear
9:55 PM 69.8 °F - 64.4 °F 83% 30.02 in 10.0 mi South 4.6 mph - N/A   Clear
10:15 PM 68.0 °F - 64.4 °F 88% 30.02 in 10.0 mi South 4.6 mph - N/A   Clear
10:35 PM 66.2 °F - 64.4 °F 94% 30.02 in 10.0 mi SSW 9.2 mph - N/A   Clear
10:55 PM 66.2 °F - 62.6 °F 88% 30.03 in 10.0 mi South 4.6 mph - N/A   Clear
11:15 PM 66.2 °F - 62.6 °F 88% 30.03 in 10.0 mi SSW 3.5 mph - N/A   Clear
11:35 PM 64.4 °F - 62.6 °F 94% 30.03 in 10.0 mi SSW 5.8 mph - N/A   Clear
11:55 PM 64.4 °F - 62.6 °F 94% 30.03 in 10.0 mi South 3.5 mph - N/A   Clear